sat.trackr.live / text

‹ back to catalog

STARLINK-5731

NORAD 56924 · 2023-083BA

PAYLOAD ACTIVE UNKNOWN

§ Identity

Operator
Country
US
Launch date
2023-06-12
Launch site
AFETR
Launch vehicle
Mass (kg)
RCS (m²)

Purposes: comms

External: N2YO · Heavens-Above · Gunter

§ Orbital elements

Epoch: 2026-05-24T17:19:55.414560Z

Period
94.27 min
Inclination
43.0043°
Eccentricity
0.0002057
Mean motion
15.27594573 rev/d
Perigee alt
481.6 km
Apogee alt
484.4 km
Semi-major
6,861.1 km
B*
1.5483e-4
RAAN
1.5120°
Arg perigee
284.6128°
Mean anomaly
75.4495°
Rev number
16,353

§ Raw data

STARLINK-57311 56924U 23083BA  26144.72216915  .00004002  00000+0  15483-3 0  99912 56924  43.0043   1.5120 0002057 284.6128  75.4495 15.27594573163536

JSON: /api/v1/satellites/56924 · /tle

For live sub-satellite position, see the globe view (requires WebGL).

§ Visibility from observer

Set your observer location to see the next 7 days of passes ≥ 10°. The values pass through the URL so the page stays shareable.

No JS? Fill the form by hand. The geolocation button needs JavaScript.